Location: Unnamed
(42.1164°N, 2.7652°E)
Time: 08:16:32
(UTC+02:00)

X-37B - Pass Details

Date: 08 August 2021
Orbit: 381 x 393 km, 45.0° (Epoch: 29 August)

Event Time Altitude Azimuth Distance (km) Brightness Sun altitude
Exits shadow 03:37:26 12° 71° (ENE) 1,291 3.8 -27.1°
Drops below altitude 10° 03:37:42 10° 71° (ENE) 1,398 3.9 -27.1°
Sets 03:39:46 0° 72° (ENE) 2,252 5.1 -26.9°
